When you browse on this site, cookies collect data to enhance your experience and personalize the content and advertising you see.
Visit our Privacy Policy to learn more. By continuing to use the site, you agree to this use of cookies and data.
  • In Hungary
  • List of Countries
  • For 7 days
  • Water Temperature
  • Weather Map
  • News
  • Weather Widgets
  • user-avatar
    Login

    Hourly Weather Esmoriz

    Today, 22 November, Friday

    Time Temperature Precipitation Wind Pressure Humidity
    00:00 +10°C° 2.2 mm 8 mps 744 mmHg 90%
    01:00 +10°C° 2.2 mm 9 mps 743 mmHg 91%
    02:00 +10°C° 2.2 mm 9 mps 742 mmHg 92%
    03:00 +11°C° 2.9 mm 8 mps 741 mmHg 93%
    04:00 +11°C° 2.9 mm 7 mps 740 mmHg 95%
    05:00 +11°C° 2.9 mm 6 mps 739 mmHg 96%
    06:00 +12°C° 2.1 mm 7 mps 739 mmHg 95%
    07:00 +13°C° 2.1 mm 8 mps 738 mmHg 94%
    08:00 +15°C° 2.1 mm 9 mps 738 mmHg 94%
    09:00 +15°C° 0.4 mm 8 mps 738 mmHg 89%
    10:00 +13°C° 0.4 mm 8 mps 738 mmHg 85%
    11:00 +13°C° 0.4 mm 8 mps 738 mmHg 80%
    12:00 +13°C° 0.6 mm 9 mps 738 mmHg 80%
    13:00 +13°C° 0.6 mm 10 mps 737 mmHg 80%
    14:00 +13°C° 0.6 mm 11 mps 737 mmHg 79%
    15:00 +13°C° 0.8 mm 11 mps 737 mmHg 80%
    16:00 +13°C° 0.8 mm 12 mps 738 mmHg 80%
    17:00 +13°C° 0.8 mm 13 mps 738 mmHg 80%
    18:00 +12°C° 0.9 mm 12 mps 739 mmHg 81%
    19:00 +12°C° 0.9 mm 11 mps 740 mmHg 81%
    20:00 +11°C° 0.9 mm 10 mps 741 mmHg 82%
    21:00 +11°C° 0.4 mm 9 mps 742 mmHg 79%
    22:00 +10°C° 0.4 mm 9 mps 743 mmHg 77%
    23:00 +10°C° 0.4 mm 9 mps 744 mmHg 75%

    Tomorrow, 23 November, Saturday

    Time Temperature Precipitation Wind Pressure Humidity
    00:00 +10°C° 0.4 mm 8 mps 745 mmHg 77%
    01:00 +10°C° 0.4 mm 8 mps 745 mmHg 79%
    02:00 +10°C° 0.4 mm 8 mps 746 mmHg 81%
    03:00 +10°C° 0.5 mm 8 mps 747 mmHg 81%
    04:00 +10°C° 0.5 mm 7 mps 747 mmHg 82%
    05:00 +9°C° 0.5 mm 7 mps 748 mmHg 83%
    06:00 +10°C° 0.2 mm 6 mps 749 mmHg 82%
    07:00 +10°C° 0.2 mm 6 mps 749 mmHg 81%
    08:00 +10°C° 0.2 mm 6 mps 750 mmHg 80%
    09:00 +11°C° 0 mm 6 mps 751 mmHg 74%
    10:00 +13°C° 0 mm 6 mps 751 mmHg 69%
    11:00 +14°C° 0 mm 6 mps 751 mmHg 63%
    12:00 +14°C° 0 mm 5 mps 752 mmHg 63%
    13:00 +14°C° 0 mm 5 mps 752 mmHg 63%
    14:00 +14°C° 0 mm 5 mps 752 mmHg 63%
    15:00 +13°C° 0.1 mm 4 mps 753 mmHg 69%
    16:00 +12°C° 0.1 mm 4 mps 753 mmHg 76%
    17:00 +11°C° 0.1 mm 3 mps 754 mmHg 82%
    18:00 +10°C° 0.1 mm 3 mps 754 mmHg 83%
    19:00 +10°C° 0.1 mm 2 mps 755 mmHg 84%
    20:00 +10°C° 0.1 mm 2 mps 755 mmHg 85%
    21:00 +10°C° 0.1 mm 2 mps 755 mmHg 85%
    22:00 +12°C° 0.1 mm 2 mps 756 mmHg 86%
    23:00 +12°C° 0.1 mm 2 mps 756 mmHg 87%

    Day after tomorrow, 24 November, Sunday

    Time Temperature Precipitation Wind Pressure Humidity
    00:00 +10°C° 0.1 mm 2 mps 756 mmHg 88%
    01:00 +10°C° 0.1 mm 2 mps 756 mmHg 89%
    02:00 +10°C° 0.1 mm 2 mps 756 mmHg 90%
    03:00 +10°C° 0 mm 2 mps 756 mmHg 89%
    04:00 +12°C° 0 mm 2 mps 756 mmHg 88%
    05:00 +12°C° 0 mm 2 mps 756 mmHg 88%
    06:00 +11°C° 0 mm 3 mps 756 mmHg 87%
    07:00 +12°C° 0 mm 3 mps 756 mmHg 87%
    08:00 +12°C° 0 mm 4 mps 756 mmHg 87%
    09:00 +12°C° 0 mm 5 mps 756 mmHg 86%
    10:00 +13°C° 0 mm 5 mps 756 mmHg 85%
    11:00 +14°C° 0 mm 6 mps 756 mmHg 85%
    12:00 +14°C° 0.2 mm 6 mps 756 mmHg 86%
    13:00 +14°C° 0.2 mm 6 mps 756 mmHg 88%
    14:00 +14°C° 0.2 mm 6 mps 755 mmHg 89%
    15:00 +14°C° 0.2 mm 6 mps 755 mmHg 90%
    16:00 +14°C° 0.2 mm 6 mps 755 mmHg 91%
    17:00 +14°C° 0.2 mm 5 mps 755 mmHg 92%
    18:00 +14°C° 0.4 mm 5 mps 756 mmHg 93%
    19:00 +14°C° 0.4 mm 5 mps 756 mmHg 94%
    20:00 +14°C° 0.4 mm 5 mps 756 mmHg 95%
    21:00 +15°C° 0.9 mm 5 mps 756 mmHg 96%
    22:00 +15°C° 0.9 mm 5 mps 756 mmHg 97%
    23:00 +15°C° 0.9 mm 5 mps 756 mmHg 98%

    25 November, Monday

    Time Temperature Precipitation Wind Pressure Humidity
    00:00 +15°C° 0.5 mm 4 mps 756 mmHg 98%
    01:00 +15°C° 0.5 mm 4 mps 756 mmHg 98%
    02:00 +15°C° 0.5 mm 4 mps 756 mmHg 98%
    03:00 +16°C° 0.2 mm 3 mps 756 mmHg 98%
    04:00 +16°C° 0.2 mm 3 mps 756 mmHg 98%
    05:00 +16°C° 0.2 mm 3 mps 756 mmHg 98%
    06:00 +16°C° 0.2 mm 3 mps 757 mmHg 98%
    07:00 +16°C° 0.2 mm 3 mps 757 mmHg 97%
    08:00 +16°C° 0.2 mm 2 mps 757 mmHg 96%
    09:00 +17°C° 0.2 mm 3 mps 758 mmHg 91%
    10:00 +18°C° 0.2 mm 3 mps 758 mmHg 86%
    11:00 +19°C° 0.2 mm 3 mps 758 mmHg 81%
    12:00 +19°C° 0.1 mm 3 mps 758 mmHg 80%
    13:00 +19°C° 0.1 mm 3 mps 757 mmHg 79%
    14:00 +19°C° 0.1 mm 3 mps 757 mmHg 78%
    15:00 +18°C° 0 mm 3 mps 757 mmHg 82%
    16:00 +17°C° 0 mm 3 mps 757 mmHg 86%
    17:00 +16°C° 0 mm 3 mps 757 mmHg 90%
    18:00 +16°C° 0.4 mm 3 mps 757 mmHg 91%
    19:00 +15°C° 0.4 mm 4 mps 757 mmHg 91%
    20:00 +15°C° 0.4 mm 4 mps 757 mmHg 92%
    21:00 +15°C° 2.6 mm 5 mps 756 mmHg 94%
    22:00 +15°C° 2.6 mm 5 mps 756 mmHg 95%
    23:00 +15°C° 2.6 mm 6 mps 756 mmHg 97%

    26 November, Tuesday

    Time Temperature Precipitation Wind Pressure Humidity
    00:00 +16°C° 1 mm 6 mps 755 mmHg 97%
    01:00 +16°C° 1 mm 7 mps 755 mmHg 97%
    02:00 +16°C° 1 mm 7 mps 755 mmHg 97%
    03:00 +16°C° 0.7 mm 7 mps 754 mmHg 96%
    04:00 +16°C° 0.7 mm 8 mps 754 mmHg 96%
    05:00 +16°C° 0.7 mm 8 mps 754 mmHg 95%
    06:00 +16°C° 0.1 mm 8 mps 754 mmHg 95%
    07:00 +16°C° 0.1 mm 8 mps 754 mmHg 94%
    08:00 +17°C° 0.1 mm 8 mps 754 mmHg 94%
    09:00 +17°C° 0.2 mm 9 mps 754 mmHg 93%
    10:00 +17°C° 0.2 mm 9 mps 753 mmHg 92%
    11:00 +17°C° 0.2 mm 9 mps 753 mmHg 91%
    12:00 +17°C° 0.2 mm 10 mps 753 mmHg 91%
    13:00 +17°C° 0.2 mm 10 mps 752 mmHg 91%
    14:00 +17°C° 0.2 mm 10 mps 752 mmHg 91%
    15:00 +17°C° 1.3 mm 9 mps 752 mmHg 92%
    16:00 +17°C° 1.3 mm 9 mps 752 mmHg 94%
    17:00 +16°C° 1.3 mm 9 mps 752 mmHg 95%
    18:00 +16°C° 2 mm 7 mps 752 mmHg 95%
    19:00 +16°C° 2 mm 5 mps 752 mmHg 94%
    20:00 +16°C° 2 mm 3 mps 753 mmHg 94%
    21:00 +16°C° 0.2 mm 3 mps 753 mmHg 92%
    22:00 +15°C° 0.2 mm 2 mps 753 mmHg 90%
    23:00 +15°C° 0.2 mm 1 mps 753 mmHg 89%

    27 November, Wednesday

    Time Temperature Precipitation Wind Pressure Humidity
    00:00 +15°C° 0 mm 1 mps 753 mmHg 88%
    01:00 +14°C° 0 mm 1 mps 753 mmHg 88%
    02:00 +14°C° 0 mm 1 mps 753 mmHg 88%
    03:00 +14°C° 0.1 mm 2 mps 754 mmHg 87%
    04:00 +14°C° 0.1 mm 2 mps 754 mmHg 87%
    05:00 +14°C° 0.1 mm 2 mps 754 mmHg 86%
    06:00 +14°C° 0.1 mm 2 mps 754 mmHg 86%
    07:00 +14°C° 0.1 mm 2 mps 755 mmHg 86%
    08:00 +14°C° 0.1 mm 2 mps 755 mmHg 86%
    09:00 +15°C° 0.1 mm 2 mps 755 mmHg 85%
    10:00 +15°C° 0.1 mm 2 mps 755 mmHg 84%
    11:00 +14°C° 0.1 mm 3 mps 756 mmHg 83%
    12:00 +14°C° 0.1 mm 3 mps 756 mmHg 85%
    13:00 +14°C° 0.1 mm 3 mps 755 mmHg 86%
    14:00 +14°C° 0.1 mm 3 mps 755 mmHg 87%
    15:00 +15°C° 0.1 mm 2 mps 756 mmHg 89%
    16:00 +14°C° 0.1 mm 2 mps 756 mmHg 90%
    17:00 +14°C° 0.1 mm 1 mps 756 mmHg 92%
    18:00 +13°C° 0 mm 2 mps 757 mmHg 92%
    19:00 +13°C° 0 mm 2 mps 757 mmHg 92%
    20:00 +12°C° 0 mm 3 mps 757 mmHg 92%
    21:00 +12°C° 0 mm 3 mps 757 mmHg 92%
    22:00 +12°C° 0 mm 4 mps 757 mmHg 92%
    23:00 +12°C° 0 mm 4 mps 757 mmHg 92%
    Show more